SCP
0 0 0 0 0 0 0 0 0 0 0 0 0 0 0 0 0 0 0 0 0 0 0 0 0 0 0 0 0 0 0 0 0 0 0 0 0 0
0 0 0 0 0 0 0 0 0 0 0 0 0 0 0 0 0 0 0 0 0 0 0 0 0 0 0 0 0 0 0 0 0 0 0 0 0 0
0 0 0 0 0 0 0 0 0 0 0 0 0 0 0 0 0 0 0 0 0 0 0 0 0 0 0 0 0 0 0 0 0 0 0 0 0 0
0 0 0 0 0 0 0 0 0 0 0 0 0 0 0 0 0 0 0 0 0 0 0 0 0 0 0 0 0 0 0 0 0 0 0 0 0 0
0 0 0 0 0 0 0 0 0 0 0 0 0 0 0 0 0 0 0 0 0 0 0 0 0 0 0 0 0 0 0 0 0 0 0 0 0 0
0 0 0 0 0 0 0 0 0 0 0 0 0 0 0 0 0 0 0 0 0 0 0 0 0 0 0 0 0 0 0 0 0 0 0 0 0 0
0 0 0 0 0 0 0 0 0 0 0 0 0 0 0 0 0 0 0 0 0 0 0 0 0 0 0 0 0 0 0 0 0 0 0 0 0 0
0 0 0 0 0 0 0 0 0 0 0 0 0 0 0 0 0 0 0 0 0 0 0 0 0 0 0 0 0 0 0 0 0 0 0 0 0 0
0 0 0 0 0 0 0 0 0 0 0 0 0 0 0 0 0 0 0 0 0 0 -0 0 0 0 0 0 0 0 0 0 0 0 0 0 0 0
0 0 0 0 0 0 0 0 0 0 0 0 0 0 0 0 0 0 0 0 0 0 0 0 0 0 0 0 0 0 0 0 0 0 0 0 0 0
0 0 0 0 0 0 0 0 0 0 0 0 0 0 0 0 0 0 0 0 0 0 0 0 0 0 0 0 0 0 0 0 0 0 0 0 0 0
0 0 0 0 0 0 0 0 0 0 0 0 0 0 0 0 0 0 0 0 0 0 0 0 0 0 0 0 0 0 0 0 0 0 0 0 0 0
0 0 0 0 0 0 0 0 0 0 0 0 0 0 0 0 0 0 0 0 0 0 0 0 0 0 0 0 0 0 0 0 0 0 0 0 0 0
0 0 0 0 0 0 0 0 0 0 0 0 0 0 0 0 0 0 0 0 0 0 0 0 0 0 0 0 0 0 0 0 0 0 0 0 0 0
0 0 0 0 0 0 0 0 0 0 0 0 0 0 0 0 0 0 0 0 0 0 0 0 0 0 0 0 0 0 0 0 0 0 0 0 0 0
0 0 0 0 0 0 0 0 0 0 0 0 0 0 0 0 0 0 0 0 0 0 0 0 0 0 0 0 0 0 0 0 0 0 0 0 0 0
0 0 0 0 0 0 0 0 0 0 0 0 0 0 0 0 0 0 0 0 0 0 0 0 0 0 0 0 0 0 0 0 0 0 0 0 0 0
0 0 0 0 0 0 0 0 0 0 0 0 0 0 0 0 0 0 0 0 0 0 0 0 0 0 0 0 0 0 0 0 0 0 0 0 0 0
0 0 0 0 0 0 0 0 0 0 0 0 0 0 0 0 0 0 0 0 0 0 0 0 0 0 0 0 0 0 0 0 0 0 0 0 0 0
0 0 0 0 0 0 0 0 0 0 0 0 0 0 0 0 0 0 0 0 0 0 0 0 0 0 0 0 0 0 0 0 0 0 0 0 0 0
0 0 0 0 0 0 0 0 0 0 0 0 0 0 0 0 0 0 0 0 0 0 0 0 0 0 0 0 0 0 0 0 0 0 0 0 0 0
0 0 0 0 0 0 0 0 0 0 0 0 0 0 0 0 0 0 0 0 0 0 0 0 0 0 0 0 0 0 0 0 0 0 0 0 0 0
0 0 0 0 0 0 0 0 0 0 0 0 0 0 0 0 0 0 0 0 0 0 0 0 0 0 0 0 0 0 0 0 0 0 0 0 0 0
Wind_Speed
7 7 6 5 4 4 4 4 5 5 5 4 3 3 3 3 4 2 2 3 3 3 3 3 2 3 3 4 5 6 6 7 7 6 5 3 1 2
5 6 5 4 4 4 4 4 5 4 4 3 2 3 3 3 5 3 2 4 3 3 3 2 2 2 3 4 4 5 6 6 6 5 4 2 0 1
5 6 6 5 4 4 4 4 4 4 3 2 1 3 4 4 4 2 2 2 1 3 3 3 2 2 3 4 4 5 5 5 5 5 4 3 1 3
6 6 6 4 5 4 4 5 4 3 4 4 2 2 3 4 4 3 2 2 1 2 3 3 2 2 3 4 5 5 5 5 5 5 5 4 3 3
5 6 6 5 5 4 5 5 4 3 3 4 3 2 2 3 4 3 2 1 1 1 2 2 2 2 3 3 5 5 6 6 6 7 7 6 5 4
4 4 4 5 6 6 5 5 5 5 5 5 4 3 3 3 3 3 2 1 0 1 1 1 2 3 3 3 4 5 5 5 6 7 8 8 6 5
3 3 3 4 5 5 4 5 6 5 5 5 4 3 3 4 4 3 2 1 0 0 1 1 2 2 2 3 3 4 4 5 6 7 8 8 7 7
3 2 2 2 3 4 6 7 7 7 7 5 4 5 5 4 4 4 4 3 1 1 1 1 1 1 1 1 2 3 3 4 5 6 7 7 7 7
3 2 1 1 3 3 5 6 5 6 7 6 6 5 6 6 6 5 4 3 2 2 2 0 1 0 1 1 1 2 3 4 4 5 6 6 7 7
3 3 3 3 3 5 5 5 4 3 4 4 5 5 5 6 6 5 5 4 3 1 2 2 0 0 1 1 1 1 2 3 4 4 5 5 6 7
2 3 4 4 6 8 7 6 5 3 4 6 6 6 8 10 9 6 5 4 2 1 1 2 1 0 1 1 2 1 1 2 3 3 4 4 6 7
1 1 3 4 7 8 6 7 6 3 4 5 6 6 5 7 8 5 6 5 3 2 2 2 2 2 1 1 2 2 2 1 2 2 2 4 5 4
1 1 2 5 7 7 6 5 7 6 5 5 5 4 4 3 3 3 3 4 4 2 3 3 2 2 2 0 1 1 1 1 1 1 1 2 3 4
2 1 2 5 6 6 5 7 10 8 5 4 4 3 3 3 3 3 4 4 3 3 4 4 3 3 3 2 1 0 1 1 1 1 1 0 1 2
1 3 3 5 5 4 6 9 8 5 5 4 3 2 2 3 3 3 4 4 5 4 3 2 3 3 3 3 2 1 1 0 0 1 0 0 0 1
1 3 5 5 4 4 5 4 3 4 4 4 3 3 3 3 2 2 2 2 2 2 3 2 2 3 2 2 2 2 2 2 1 1 1 0 0 1
2 2 2 2 2 2 2 3 3 3 3 3 4 4 4 3 2 2 2 2 2 2 1 1 2 2 2 3 2 2 2 1 1 1 1 1 1 2
3 2 2 2 3 3 3 3 3 3 3 4 4 4 4 4 3 2 2 2 2 2 2 2 2 2 1 1 3 3 2 2 1 2 2 2 2 2
2 2 2 2 2 2 3 3 3 3 4 4 4 4 4 4 4 3 3 3 2 2 2 3 2 3 2 2 1 4 3 2 2 2 2 2 2 2
1 2 2 2 2 2 2 2 3 4 4 4 4 4 4 4 4 4 4 4 3 3 3 3 3 4 4 3 2 1 4 3 3 2 2 1 1 3
1 1 2 2 2 2 2 2 3 3 4 4 4 4 4 4 4 4 4 6 4 3 4 4 4 5 2 2 1 1 1 4 5 3 3 2 1 1
1 1 2 2 2 2 2 2 2 3 3 3 4 4 4 4 4 5 4 4 4 3 3 2 3 3 3 3 2 2 1 1 3 5 6 6 4 4
1 1 1 2 2 2 2 3 3 3 3 3 4 4 4 4 4 4 4 4 3 3 3 3 3 3 3 3 3 2 2 2 1 1 3 6 9 8
Wind_Direction
227 225 224 222 212 208 196 191 189 204 210 188 183 179 165 157 157 144 145 150 131 125 110 88 60 25 10 360 356 353 351 344 338 333 330 329 273 214
234 227 229 226 216 212 203 202 200 197 200 170 173 165 162 152 153 141 152 139 127 131 126 105 70 29 18 7 3 357 351 342 342 345 342 341 48 139
234 228 231 225 217 213 202 198 194 175 178 152 134 147 150 153 140 131 124 112 125 138 145 133 105 56 34 20 9 2 352 349 355 0 10 25 86 133
235 228 230 222 216 206 197 198 189 168 163 168 152 149 151 152 139 134 118 108 111 148 141 125 106 72 45 27 20 13 7 12 22 23 33 43 72 107
243 232 225 212 217 207 196 190 175 156 148 151 150 139 129 128 123 112 111 94 99 140 132 130 109 75 53 38 26 20 16 32 40 38 42 49 64 81
248 237 222 214 212 199 188 180 159 150 140 136 137 134 125 122 128 140 141 134 94 49 105 102 94 65 54 46 30 23 25 37 46 51 50 49 58 70
257 247 227 216 208 191 177 166 157 152 142 140 142 137 141 148 163 154 157 135 66 80 63 22 37 35 20 22 27 31 37 46 54 57 58 54 61 70
242 256 234 192 177 171 164 157 157 156 158 151 153 163 168 160 145 151 147 145 194 199 121 2 42 40 354 344 12 37 51 61 65 63 62 60 64 74
220 216 222 172 157 145 133 124 133 151 159 158 162 172 167 168 157 155 162 155 175 168 119 141 23 351 325 321 11 70 71 71 73 72 66 67 70 77
222 205 195 178 164 147 132 117 108 115 143 146 156 162 160 158 161 157 148 117 87 65 112 146 189 290 336 344 339 101 99 89 87 83 74 77 84 87
223 201 181 174 168 153 141 133 119 99 99 120 129 139 147 150 145 129 132 130 131 167 127 137 155 86 7 347 337 357 108 104 97 95 87 92 104 95
210 194 182 178 171 162 150 146 146 142 119 104 96 97 109 138 149 150 153 146 137 175 182 137 139 126 109 334 350 3 19 72 102 104 97 100 113 100
185 197 192 181 171 163 152 149 157 142 125 116 108 99 89 89 91 102 125 142 146 174 168 139 137 137 141 153 343 4 33 29 31 48 82 105 113 119
183 187 177 167 160 155 153 154 147 134 120 120 121 122 117 113 103 96 93 85 88 139 153 139 142 155 142 145 195 349 21 32 67 57 18 65 100 134
160 165 150 143 142 145 154 150 140 131 132 134 140 135 123 124 116 101 85 83 72 62 77 110 135 139 139 158 166 160 154 287 126 126 96 78 81 107
122 143 133 122 110 129 140 137 131 141 142 144 140 130 122 122 124 123 122 113 97 57 41 64 114 136 140 153 157 174 176 188 189 176 158 179 197 175
131 113 112 124 128 129 123 124 130 136 140 138 143 145 145 144 143 136 135 132 136 147 132 73 79 95 129 148 161 191 183 194 202 182 167 205 237 215
138 148 157 165 171 169 164 159 155 158 158 154 155 160 162 163 160 154 151 157 164 166 160 156 139 96 54 307 204 189 187 190 185 178 168 190 247 237
137 156 168 179 178 175 175 174 173 168 161 162 165 166 165 166 166 169 169 167 173 174 168 159 159 151 160 219 250 197 178 172 161 174 193 197 222 243
141 169 175 174 171 173 178 176 167 160 162 167 169 170 172 171 173 177 177 178 178 176 173 171 181 184 187 187 196 232 196 178 173 182 190 196 251 275
164 176 177 171 171 176 177 172 168 169 171 170 173 175 177 176 180 182 182 190 185 182 192 199 204 183 149 118 137 242 242 206 188 177 166 161 209 252
187 189 187 179 174 175 172 171 173 174 173 174 176 177 179 181 183 182 181 183 187 187 190 178 150 153 160 186 208 206 223 259 223 217 210 194 178 198
205 202 193 182 180 175 172 177 182 185 183 179 177 178 179 184 185 183 184 184 179 180 177 170 164 170 186 194 203 211 215 215 213 225 247 236 232 238